This demonstration page uses our WeatherBlox Daily Observations layout. Learn more.

Left ArrowRight Arrow

Hourly Observations for July 1, 2015

Temp ( °F °C ) Dew Point ( °F °C ) Humidity (%) Winds ( mph kmh ) Pressure ( in mb ) Visibility ( mi km ) Precip ( " mm )
12:59 am 00:59 Mostly Cloudy 71 21.7 65 18.3 81 81 SSW 5 7 29.88 1012 10 16 0.00 0.03
1:59 am 01:59 Mostly Cloudy 73 22.8 66 18.9 79 79 SSW 9 15 29.88 1012 10 16 0.00 0.00
2:59 am 02:59 Mostly Cloudy 74 23.3 66 18.9 76 76 SSW 9 15 29.88 1012 10 16 0.00 0.00
3:59 am 03:59 Mostly Cloudy 73 22.8 66 18.9 79 79 SW 8 13 29.80 1009 10 16 0.00 0.00
4:59 am 04:59 Mostly Cloudy 73 22.8 66 18.9 79 79 SSW 12 19 29.89 1012 10 16 0.00 0.00
5:59 am 05:59 Mostly Cloudy 72 22.2 66 18.9 82 82 SW 8 13 29.90 1013 9 14 0.00 0.00
6:59 am 06:59 Partly Cloudy 72 22.2 66 18.9 82 82 SW 12 19 29.91 1013 8 13 0.00 0.00
7:59 am 07:59 Mostly Sunny 72 22.2 67 19.4 84 84 SW 13 20 29.91 1013 7 11 0.00 0.00
8:59 am 08:59 Partly Cloudy 74 23.3 68 20 82 82 WSW 9 15 29.92 1013 7 11 0.00 0.00
9:59 am 09:59 Mostly Sunny 77 25 66 18.9 69 69 W 9 15 29.91 1013 7 11 0.00 0.00
10:59 am 10:59 Sunny 78 25.6 67 19.4 69 69 W 9 15 29.93 1013 7 11 0.00 0.00
11:59 am 11:59 Sunny 80 26.7 67 19.4 64 64 W 9 15 29.93 1014 7 11 0.00 0.00
12:59 pm 12:59 Sunny 83 28.3 65 18.3 55 55 W 10 17 29.93 1014 7 11 0.00 0.00
1:59 pm 13:59 Hazy 85 29.4 66 18.9 53 53 SW 7 11 29.91 1013 6 10 0.00 0.00
2:59 pm 14:59 Hazy 80 26.7 75 23.9 85 85 WSW 10 17 30.06 1018 6 10 0.00 0.03
3:59 pm 15:59 Hazy 86 30 65 18.3 49 49 WSW 9 15 29.90 1012 6 10 0.00 0.00
4:59 pm 16:59 Hazy 85 29.4 66 18.9 53 53 SW 12 19 29.89 1012 6 10 0.00 0.00
5:59 pm 17:59 Hazy 85 29.4 65 18.3 51 51 W 12 19 29.88 1012 6 10 0.00 0.00
6:59 pm 18:59 Hazy 83 28.3 66 18.9 57 57 WSW 10 17 29.90 1012 6 10 0.00 0.00
7:59 pm 19:59 Mostly Cloudy 85 29.4 67 19.4 55 55 S 7 11 29.85 1011 8 13 0.00 0.00
8:59 pm 20:59 Partly Cloudy 79 26.1 67 19.4 67 67 SW 5 7 29.91 1013 7 11 0.00 0.00
9:59 pm 21:59 Mostly Cloudy with Haze 77 25 68 20 74 74 SSW 6 9 29.93 1013 6 10 0.00 0.00
10:59 pm 22:59 Mostly Cloudy with Haze 78 25.6 68 20 71 71 SSW 6 9 29.93 1014 6 10 0.00 0.00
11:59 pm 23:59 Mostly Cloudy with Haze 77 25 68 20 74 74 SSW 6 9 29.93 1013 6 10 0.00 0.00

Powered by AerisWeather